User: anonymous   Login
Location: Asheville, NC
(35.6000°N, 82.5500°W)
Time: 20:49:40
(UTC-04:00)
Language:

BEESAT - Orbit

View from above orbital plane
View from above orbital plane
View from above satellite
View from above satellite

Ground track
Ground track

The orbit data is extracted from the following two-line orbital elements,

1 35933U 09051C   18198.42067951  .00000089  00000-0  31103-4 0  9998
2 35933  98.5530 351.8803 0006906 124.6938 235.4910 14.56278159467949
Epoch (UTC): 17 July 2018 10:05:46
Eccentricity: 0.0006906
inclination: 98.5530°
perigee height: 700 km
apogee height: 710 km
right ascension of ascending node: 351.8803°
argument of perigee: 124.6938°
revolutions per day: 14.56278159
mean anomaly at epoch: 235.4910°
orbit number at epoch: 46794

The dashed part of the orbit path shows where the satellite is in the earth's shadow,  

DLR